Christchurch, New Zealand

1:12 PM NZDT on October 20, 2017 (GMT +1300)
Christchurch International

Weather History for NZCH - January, 2014

Change the Weather History Date:

Tuesday, January 14, 2014

  Actual Average Record
Temperature  
Mean Temperature 55 °F -  
Max Temperature 69 °F 68 °F 80 °F (1999)
Min Temperature 41 °F 50 °F 41 °F (2014)
Degree Days  
Heating Degree Days 10    
Growing Degree Days 5 (Base 50)    
Moisture  
Dew Point 43 °F    
Average Humidity 63    
Maximum Humidity 100    
Minimum Humidity 30    
Precipitation  
Precipitation 0.00 in - - ()
Sea Level Pressure  
Sea Level Pressure 29.87 in    
Wind  
Wind Speed 7 mph ()    
Max Wind Speed 21 mph    
Max Gust Speed -    
Visibility 6.2 miles    
Events      
Averages and records for this station are not official NWS values.
T = Trace of Precipitation, MM = Missing Value Source: Averaged Metar Reports

Daily Weather History Graph

Daily Weather History Graph

Search for Another Location

Airport or City:

Trip Planner

Search our weather history database for the weather conditions in past years. The results will help you decide how hot, cold, wet, or windy it might be!

Date:

Astronomy

Jan. 14, 2014 Rise Set
Actual Time 6:05 AM NZDT 9:10 PM NZDT
Civil Twilight 5:31 AM NZDT 9:45 PM NZDT
Nautical Twilight 4:47 AM NZDT 10:29 PM NZDT
Astronomical Twilight 3:54 AM NZDT 11:21 PM NZDT
Moon 7:25 PM NZDT (1/14) 4:19 AM NZDT (1/14)
Length of Visible Light 16h 13m
Length of Day
15h 04m
Waxing Gibbous, 96% of the Moon is Illuminated
Jan 14
Waxing Gibbous
Jan 16
Full
Jan 24
Last Quarter
Jan 31
New
Feb 7
First Quarter

Hourly Weather History & Observations

Time (NZDT) Temp. Windchill Dew Point Humidity Pressure Visibility Wind Dir Wind Speed Gust Speed Precip Events Conditions
12:00 AM 53.6 °F - 46.4 °F 77% 29.74 in 6.2 mi East 11.5 mph - N/A   Unknown
12:30 AM 53.6 °F - 46.4 °F 77% 29.74 in 6.2 mi East 12.7 mph - N/A   Unknown
1:00 AM 53.6 °F - 48.2 °F 82% 29.74 in 6.2 mi East 11.5 mph - N/A   Unknown
1:30 AM 53.6 °F - 48.2 °F 82% 29.74 in 6.2 mi East 11.5 mph - N/A   Unknown
2:00 AM 53.6 °F - 48.2 °F 82% 29.71 in 6.2 mi ESE 15.0 mph - N/A   Unknown
2:30 AM 53.6 °F - 48.2 °F 82% 29.71 in 6.2 mi East 9.2 mph - N/A   Unknown
3:00 AM 53.6 °F - 48.2 °F 82% 29.74 in 6.2 mi ESE 6.9 mph - N/A   Unknown
3:30 AM 50.0 °F - 46.4 °F 87% 29.74 in 6.2 mi ESE 3.5 mph - N/A   Unknown
4:00 AM 50.0 °F - 46.4 °F 87% 29.74 in 6.2 mi SSE 1.2 mph - N/A   Unknown
4:30 AM 46.4 °F - 44.6 °F 93% 29.74 in 6.2 mi Calm Calm - N/A   Unknown
5:00 AM 42.8 °F 41.1 °F 42.8 °F 100% 29.74 in 6.2 mi West 3.5 mph - N/A   Unknown
5:30 AM 44.6 °F 42.2 °F 44.6 °F 100% 29.74 in 6.2 mi WSW 4.6 mph - N/A   Unknown
6:00 AM 41.0 °F - 41.0 °F 100% 29.77 in 6.2 mi SW 2.3 mph - N/A   Unknown
6:30 AM 42.8 °F 40.1 °F 41.0 °F 93% 29.77 in 6.2 mi West 4.6 mph - N/A   Unknown
7:00 AM 48.2 °F - 42.8 °F 82% 29.80 in 6.2 mi WNW 6.9 mph - N/A   Unknown
7:30 AM 51.8 °F - 39.2 °F 62% 29.80 in 6.2 mi West 8.1 mph - N/A   Unknown
8:00 AM 51.8 °F - 42.8 °F 71% 29.83 in 6.2 mi South 4.6 mph - N/A   Unknown
8:30 AM 53.6 °F - 42.8 °F 67% 29.83 in 6.2 mi South 5.8 mph - N/A   Unknown
9:00 AM 57.2 °F - 42.8 °F 59% 29.83 in 6.2 mi South 4.6 mph - N/A   Unknown
9:30 AM 60.8 °F - 41.0 °F 48% 29.83 in 6.2 mi WSW 3.5 mph - N/A   Unknown
10:00 AM 62.6 °F - 41.0 °F 45% 29.83 in 6.2 mi West 3.5 mph - N/A   Unknown
10:30 AM 64.4 °F - 39.2 °F 40% 29.83 in 6.2 mi North 4.6 mph - N/A   Unknown
11:00 AM 64.4 °F - 37.4 °F 37% 29.83 in 6.2 mi NNE 6.9 mph - N/A   Unknown
11:30 AM 66.2 °F - 37.4 °F 35% 29.83 in 6.2 mi SE 5.8 mph - N/A   Unknown
12:00 PM 68.0 °F - 37.4 °F 33% 29.83 in 6.2 mi NNE 6.9 mph - N/A   Unknown
12:30 PM 68.0 °F - 35.6 °F 30% 29.83 in 6.2 mi NNE 5.8 mph - N/A   Scattered Clouds
1:00 PM 69.8 °F - 42.8 °F 38% 29.83 in 6.2 mi SE 6.9 mph - N/A   Scattered Clouds
1:30 PM 69.8 °F - 39.2 °F 33% 29.83 in 6.2 mi East 10.4 mph - N/A   Mostly Cloudy
2:00 PM 68.0 °F - 37.4 °F 33% 29.86 in 6.2 mi East 9.2 mph - N/A   Unknown
2:30 PM 66.2 °F - 44.6 °F 46% 29.86 in 6.2 mi East 20.7 mph - N/A   Partly Cloudy
3:00 PM 68.0 °F - 41.0 °F 37% 29.89 in 6.2 mi East 11.5 mph - N/A   Unknown
3:30 PM 66.2 °F - 42.8 °F 43% 29.89 in 6.2 mi ENE 8.1 mph - N/A   Scattered Clouds
4:00 PM 62.6 °F - 44.6 °F 52% 29.92 in 6.2 mi SSW 11.5 mph - N/A   Mostly Cloudy
4:30 PM 62.6 °F - 44.6 °F 52% 29.95 in 6.2 mi South 15.0 mph - N/A   Overcast
5:00 PM 60.8 °F - 44.6 °F 55% 29.95 in 6.2 mi SSW 13.8 mph - N/A   Mostly Cloudy
5:30 PM 60.8 °F - 42.8 °F 52% 29.98 in 6.2 mi South 12.7 mph - N/A   Overcast
6:00 PM 59.0 °F - 42.8 °F 55% 29.98 in 6.2 mi South 9.2 mph - N/A   Mostly Cloudy
6:30 PM 59.0 °F - 42.8 °F 55% 30.01 in 6.2 mi SSE 8.1 mph - N/A   Overcast
7:00 PM 57.2 °F - 42.8 °F 59% 30.01 in 6.2 mi South 8.1 mph - N/A   Overcast
7:30 PM 57.2 °F - 44.6 °F 63% 30.01 in 6.2 mi WSW 3.5 mph - N/A   Overcast
8:00 PM 57.2 °F - 42.8 °F 59% 30.04 in 6.2 mi South 4.6 mph - N/A   Overcast
8:30 PM 55.4 °F - 42.8 °F 63% 30.04 in 6.2 mi SSW 4.6 mph - N/A   Overcast
9:00 PM 55.4 °F - 42.8 °F 63% 30.06 in 6.2 mi SSW 4.6 mph - N/A   Overcast
9:30 PM 55.4 °F - 42.8 °F 63% 30.06 in 6.2 mi SW 5.8 mph - N/A   Overcast
10:00 PM 55.4 °F - 42.8 °F 63% 30.09 in 6.2 mi SW 4.6 mph - N/A   Overcast
10:30 PM 55.4 °F - 46.4 °F 72% 30.09 in 6.2 mi NW 4.6 mph - N/A   Overcast
11:00 PM 55.4 °F - 46.4 °F 72% 30.12 in 6.2 mi NW 4.6 mph - N/A   Overcast
11:30 PM 53.6 °F - 46.4 °F 77% 30.12 in 6.2 mi NW 3.5 mph - N/A   Overcast